Regional Weather Roundup
Issued by NWS Wakefield, VA

Home | Current Version | Previous Version | Graphics & Text | Print | Product List | Glossary On
Versions: 1 2 3 4 5 6 7 8 9 10 11 12 13 14 15 16 17 18 19 20 21 22 23 24 25 26 27 28 29 30 31 32 33 34 35 36 37 38 39 40 41 42 43 44 45 46 47 48 49 50
000
ASUS41 KAKQ 210910
RWRAKQ

REGIONAL WEATHER ROUNDUP
NATIONAL WEATHER SERVICE WAKEFIELD VA
400 AM EST FRI NOV 21 2014

Note: "fair" indicates few or no clouds below 12,000 feet with no
significant weather and/or obstructions to visibility. * = Denotes
station may not report precipitation (e.g., rain,snow,etc.),
thunder or fog.

VAZ042-051-052>054-056-211000-
NORTHERN VIRGINIA

CITY           SKY/WX    TMP DP  RH WIND       PRES   REMARKS
WASH NATIONAL  PTCLDY    32   9  38 NW9       30.23R
DULLES         MOCLDY    30  11  45 NW13      30.24R WCI  20
FORT BELVOIR   CLEAR     32  13  46 NW13      30.25R WCI  22
QUANTICO       CLEAR     32   9  38 N8        30.25R
FREDERICKSBRG* CLEAR     31  14  49 NW5       30.23R
STAFFORD*      CLEAR    N/A N/A N/A CALM      30.28R
WARRENTON      PTCLDY    26  18  71 CALM      30.23R
CULPEPER*      PTCLDY    34  12  40 NW6       30.24R
MANASSAS*      MOCLDY    28  16  59 N6        30.25R
LEESBURG*      PTCLDY    32  14  47 NW16      30.24R WCI  21
WINCHESTER     CLOUDY    30   5  34 W14       30.21R WCI  20
FRONT ROYAL*   PTSUNNY   30  10  43 W13G24    30.21R WCI  20
LURAY*         CLOUDY    32  14  47 W5        30.21R
$$

VAZ048-049-060>072-079>083-211000-
CENTRAL AND SOUTH CENTRAL VIRGINIA

CITY           SKY/WX    TMP DP  RH WIND       PRES   REMARKS
RICHMOND       CLEAR     33  17  51 N3        30.23R
CHESTERFIELD*  SUNNY     25  12  58 CALM      30.24R
PETERSBURG*    CLEAR     25  21  86 CALM      30.24R
HANOVER        CLEAR     25  18  74 NE3       30.24R
TAPPAHANNOCK*  CLEAR     32  10  39 CALM      30.24R
QUINTON*       FAIR      31  19  60 N5        30.22R
CHARLOTTSVILLE CLEAR     30   8  39 VRB6      30.22R
GORDONSVILLE*  SUNNY     32   8  37 W5        30.22R
ORANGE*        CLEAR     30  14  51 CALM      30.25R
LOUISA*        CLEAR     27  16  63 CALM      30.21R
BUMPASS*       FAIR      32  12  43 CALM      30.23R
FARMVILLE*     CLEAR     33  13  43 SW3       30.22R
CREWE*         SUNNY     33  13  45 NW3       30.22R
FORT PICKETT*  SUNNY     32  17  54 NW6       30.22R
LUNENBURG*     SUNNY     36  16  44 CALM      30.22R
CHASE CITY*    FAIR      37  19  47 NW5       30.23R
CLARKSVILLE*   FAIR      36  18  48 W5        30.22R
SOUTH HILL*    CLEAR     37  15  41 NW6       30.28R
LAWRENCEVILLE* SUNNY     37  19  47 NW6       30.21R
$$

VAZ088>098-211000-
SOUTHEAST VIRGINIA

CITY           SKY/WX    TMP DP  RH WIND       PRES   REMARKS
NORFOLK        CLEAR     41  30  65 NW5       30.19R
VIRGINIA BEACH CLEAR     34  26  72 NW3       30.19R
NORFOLK NAVAL  CLEAR     43  29  57 N12       30.22R
WEST POINT*    CLEAR     35  14  42 N3        30.25R
SALUDA*        FAIR      35  16  46 N10       30.22R
NEWPORT NEWS   CLEAR     35  25  66 N7        30.22R
LANGLEY AFB    CLEAR     36  26  68 N9        30.22R
FORT EUSTIS    CLEAR     37  22  55 N5        30.20R
WILLIAMSBURG*  CLEAR     34  28  80 N5        30.23R
HR EXEC AP*    SUNNY     28  25  86 NW3       30.23R
FRANKLIN*      CLEAR     27  23  86 CALM      30.22R
WAKEFIELD      CLEAR     36  21  54 CALM      30.23R
$$

VAZ020-022-025-037-045-211000-
WEST CENTRAL AND SOUTHWEST VIRGINIA

CITY           SKY/WX    TMP DP  RH WIND       PRES   REMARKS
STAUNTON*      CLEAR     26  10  50 NW7       30.22R
WAYNESBORO*    SUNNY     26   9  47 NW6       30.18R
HOT SPRINGS VA MOCLDY    16   8  71 W17G31    30.02R WCI   0
LYNCHBURG      CLEAR     30  14  51 W3        30.23R
DANVILLE       CLEAR     37  14  38 NW9       30.24R
SOUTH BOSTON*  SUNNY     37  12  36 NW7       30.23R
MARTINSVILLE   CLEAR     35  13  40 CALM      30.26R
ROANOKE        CLEAR     31  13  47 W10       30.24R WCI  22
BLACKSBURG     CLEAR     27  18  69 NW15G21   30.20S WCI  15
DUBLIN*        PTCLDY    28  18  65 W5G16     30.22R
MARION*        CLEAR     28  16  59 W17G29    30.21R WCI  16
HILLSVILLE*    CLEAR     28  13  52 W15G24    30.17S WCI  16
RICHLANDS*     SUNNY     26  18  71 NW6       30.24R
WISE*          CLEAR     27  18  69 W7        30.26R
ABINGDON*      CLEAR     30  18  60 NW6       30.26S
$$

MDZ021>025-VAZ099-100-211000-
SOUTHERN MARYLAND AND THE DELMARVA PENINSULA

CITY           SKY/WX    TMP DP  RH WIND       PRES   REMARKS
PATUXENT RIVER CLEAR     34  12  40 NW20G31   30.22R WCI  23
BAY BRIDGE APT   N/A     32  12  43 NW25G32   30.22R WCI  19
LEONARDTOWN    CLEAR     32  10  40 NW5       30.24R
DOVER          CLEAR     30  10  43 W14       30.16R WCI  20
GEORGETOWN     CLEAR     31  12  45 MISG      30.20R
EASTON         CLEAR     33  15  47 N17G25    30.24R WCI  22
CAMBRIDGE      CLEAR     36  18  48 NW7G18    30.20R
SALISBURY      CLEAR     32  15  49 NW3       30.21R
OCEAN CITY     CLEAR     30  14  51 N8        30.20R
WALLOPS ISLAND CLEAR     31  11  43 N6        30.22R
ACCOMACK*      CLEAR     36  18  48 N8        30.20R
$$

NCZ012>017-030>032-211000-
NORTH CENTRAL AND EASTERN NORTH CAROLINA

CITY           SKY/WX    TMP DP  RH WIND       PRES   REMARKS
ROANOKE RAPIDS SUNNY     34  23  64 NW7       30.22R
RALEIGH        CLEAR     30  26  85 CALM      30.23R
ELIZABETH CITY CLEAR     43  26  51 NW16      30.19R
AHOSKIE*       CLEAR     34  24  66 CALM      30.22R
EDENTON*         N/A     42  29  61 NW6       30.21R
CURRITUCK*     CLEAR     39  25  58 N3        30.20R
KILL DEVIL HLS CLEAR     45  32  59 NW8       30.17R
MANTEO         CLEAR     45  32  60 NW8       30.19R
CAPE HATTERAS  CLEAR     47  38  71 NW12      30.19R
TARBORO*       SUNNY     28  26  95 CALM      30.23R
GOLDSBORO      CLEAR     34  32  93 CALM      30.21R
WASHINGTON     CLEAR     33  30  88 CALM      30.22R
GREENVILLE     CLEAR     32  32 100 CALM      30.23R
NEW BERN       CLEAR     44  33  65 NW5       30.22R
WILMINGTON     PTCLDY    44  35  70 SW7       30.23R
$$

VAZ048-211000-
ELSEWHERE

CITY           SKY/WX    TMP DP  RH WIND       PRES   REMARKS
HARRISBURG PA  PTCLDY    27   9  46 W8        30.18R
BALTIMORE      PTCLDY    29   9  43 W9        30.22R
ANNAPOLIS      CLEAR     34  15  46 NW16      30.22R WCI  24
ANDREWS AFB    CLEAR     31  10  41 NW23G29   30.21R WCI  18
PHILADELPHIA   FAIR      31   6  35 W17       30.18R WCI  19
WILDWOOD NJ*   CLEAR     34   9  35 W17G26    30.17R WCI  23
HENDERSON NC   CLEAR     37  14  39 NW5       30.22R
GREENSBORO     CLEAR     37  18  46 NW5       30.22R
ROCKY MOUNT    CLEAR     28  26  92 CALM      30.22R
$$

VAZ100-211000-
MARINE

STATION/POSITION TIME  TEMP    WIND        PRES    WAVE   SWELL
                       AIR SEA DIR/SP/G            HT/PER HT/PER
                 (UTC) (F)     (DEG/KT/KT) (MB)    (FT/S) (FT/S)
CAPE MAY NJ      0900   34 47  310/ 15/ 25 1021.4R
LEWES DE         0900   34 47  310/ 19/ 23 1022.0R
15NM E FENWICK I 0900   37 54              1021.1R   5/ 6
OCEAN-CITY-INLET 0900   34 46  350/ 11/ 14 1021.9R
WACHAPREAGUE VA  0900   35 43   10/  4/  6 1022.7R
THOMAS POINT MD  0900   33 47  320/ 21/ 25 1023.8R
GOOSES REEF MD   0900   35     340/ 19/ 25 1023.5R
COVE POINT MD    0900   34     340/ 19/ 24 1022.9R
SOLOMONS ISLAND  0900      49                N/A
BISHOPS HEAD MD  0900   32 40  340/  5/  7 1022.6R
PINEY POINT MD   0900          350/ 14/ 18   N/A
POTOMAC MD       0900   36     350/ 14/ 17 1022.7R
CAMBRIDGE MD     0900   34 43  340/ 12/ 18 1022.8R
LEWISETTA VA     0900   35 45  340/ 14/ 21 1023.3R
RAPPAHANNOCK LGT 0900          330/ 21/ 24 1023.0R
STINGRAY PT      0900   39     350/ 14/ 17 1023.5R
YORK RVR RNG VA  0900   40      10/ 15/ 17 1022.3R
YORKTOWN VA      0900   38 51  350/  7/  9 1022.9R
JAMESTOWN VA     0900   36      10/  4/  6   N/A
DOMINION TERM VA 0900   41     360/  1/  5 1022.6R
KIPTOPEKE VA     0900      53   60/  3/  5   N/A
CHES BAY BRIDGE  0900   44 51   10/ 11/ 12 1021.9R
CAPE HENRY VA    0900   43      10/  9/ 11 1021.1R
CHESAPEAKE LGHT  0800   45     360/ 16/ 18 1022.0R
WILLOUBY STN VA  0900   41     350/ 11/ 12 1021.2R
S CRANEY ISL VA  0900          310/  5/  8 1022.5R
CAPE HENRY BUOY  0900      55                N/A     3/ 4
1ST LANDING BUOY 0900   44      20/ 10/ 14 1022.0R
CAPE CHARLES BUO 0900      53                N/A     3/ 3
64NM E OF VA BCH 0900   50 61  340/ 16/ 21 1020.1R   5/ 5
DUCK PIER NC     0900   45 55  310/ 13/ 17 1021.0R
44100 DUCK FRF   0900      58                N/A     3/ 3
44056 DUCK FRF   0900      56                N/A     1/ 7
OREGON INLET NC  0900   46 47  280/  9/ 14 1021.8R
HATTERAS NC      0900   51 53  300/ 17/ 19 1022.6R
DIAMOND SHLS NC  0900   56     300/ 21/ 25 1021.4R   7/ 8
CAPE LOOKOUT NC  0800   55     280/ 21/ 24 1022.1R



USA.gov is the U.S. government's official web portal to all federal, state and local government web resources and services.